Regional Weather Roundup
Issued by NWS

Home | Current Version | Previous Version | Text Only | Print | Product List | Glossary On
Versions: 1 2 3 4 5 6 7 8 9 10 11 12 13 14 15 16 17 18 19 20 21 22 23 24 25 26 27 28 29 30 31 32 33 34 35 36 37 38 39 40 41 42 43 44 45 46 47 48 49 50
000
ASUS44 KLIX 201810
RWRLA
LOUISIANA WEATHER ROUNDUP
NATIONAL WEATHER SERVICE NEW ORLEANS LA
100 PM CDT WED AUG 20 2014

NOTE: "FAIR" INDICATES FEW OR NO CLOUDS BELOW 12,000 FEET WITH NO
      SIGNIFICANT WEATHER AND/OR OBSTRUCTIONS TO VISIBILITY.
      SKY/WX - SKY CONDITION AND SIGNIFICANT WEATHER.
      TMP - AIR TEMPERATURE.    DP   - DEWPOINT TEMPERATURE.
      RH  - RELATIVE HUMIDITY.  PRES - PRESSURE.
      HX  - HEAT INDEX.         WCI  - WIND CHILL INDEX.

*  THESE STATIONS ARE NOT NWS OR FAA STATIONS AND ARE NOT UNDER
   NWS QUALITY CONTROL.

LAZ040-048-061>063-065-066-069-201900-
SOUTHEAST LOUISIANA

CITY           SKY/WX    TMP DP  RH WIND       PRES   REMARKS
N.O. AUDUBON     N/A     96  76  52 MISG        N/A  HX 109
6HR MIN TEMP:  79; 6HR MAX TEMP:  99;

N.O. INTL ARPT PTSUNNY   90  77  65 VRB5      30.07F HX 103
6HR MIN TEMP:  78; 6HR MAX TEMP:  92;

N.O. LAKEFRONT MOSUNNY   90  75  61 NE12      30.08F HX 100
N.O. DOWNTOWN* MOCLDY    91  73  55 S10       30.07F HX 100
6HR MIN TEMP:  82; 6HR MAX TEMP:  95;

SLIDELL        MOSUNNY   92  73  53 CALM      30.07F HX 100
6HR MIN TEMP:  74; 6HR MAX TEMP:  93;

BATON ROUGE    PTSUNNY   90  74  59 NW3       30.06F HX  99
6HR MIN TEMP:  73; 6HR MAX TEMP:  93;

BOOTHVILLE     MOSUNNY   89  76  65 VRB7      30.10S HX 100
6HR MIN TEMP:  84; 6HR MAX TEMP:  90;

BELLE CHASSE   LGT RAIN  85  69  58 S6        30.08S
6HR MIN TEMP:  75; 6HR MAX TEMP:  92;

BOGALUSA*        N/A     92  73  52 NW3       30.09F HX 100
6HR MIN TEMP:  74; 6HR MAX TEMP:  92;

GALLIANO*      NOT AVBL
NEW ROADS*     MOCLDY    89  75  63 MISG      30.06F HX 100
6HR MIN TEMP:  71; 6HR MAX TEMP:  90;

GONZALES*      FAIR      91  74  58 CALM      30.05F HX 101
6HR MIN TEMP:  73; 6HR MAX TEMP:  92;

HAMMOND*       MOSUNNY   95  70  43 SE3       30.09F HX 101
HOUMA*         LGT RAIN  79  73  83 SW10      30.07S
PORT FOURCHON* MOCLDY    90  77  66 S9        30.09F HX 102

$$

LAZ041-044-053-054-201900-
SOUTHWEST LOUISIANA

CITY           SKY/WX    TMP DP  RH WIND       PRES   REMARKS
LAKE CHARLES   SUNNY     91  76  61 S10       30.03F HX 103
6HR MIN TEMP:  74; 6HR MAX TEMP:  91;

LAFAYETTE      MOSUNNY   91  75  59 SW10      30.05F HX 101
6HR MIN TEMP:  74; 6HR MAX TEMP:  92;

PATTERSON      MOSUNNY  N/A N/A N/A MISG        N/A
SALT POINT       N/A     93  79  63 VRB5      30.07S HX 110
6HR MIN TEMP:  87; 6HR MAX TEMP:  94; 6HR PCP:  0.07;

NEW IBERIA     MOSUNNY   94  75  54 S13       30.06S THUNDER HX 105
6HR MIN TEMP:  75; 6HR MAX TEMP:  94;

CHENAULT AIRPK NOT AVBL

$$

LAZ027-028-201900-
CENTRAL LOUISIANA

CITY           SKY/WX    TMP DP  RH WIND       PRES   REMARKS
FORT POLK      MOSUNNY   90  73  57 SW8       30.05S HX  98
6HR MIN TEMP:  71; 6HR MAX TEMP:  92;

ALEXANDRIA INT MOSUNNY   91  74  57 S7        30.03F HX 100
6HR MIN TEMP:  74; 6HR MAX TEMP:  92;

ALEXANDRIA     MOSUNNY   91  74  57 CALM      30.05F HX 100
6HR MIN TEMP:  73; 6HR MAX TEMP:  91;


$$

LAZ001-002-201900-
NORTHWEST LOUISIANA

CITY           SKY/WX    TMP DP  RH WIND       PRES   REMARKS
SHREVEPORT     MOSUNNY   92  70  48 VRB5      30.02F HX  97
6HR MIN TEMP:  72; 6HR MAX TEMP:  92;

BARKSDALE AFB  SUNNY     93  66  40 S10       30.03S HX  96
6HR MIN TEMP:  71; 6HR MAX TEMP:  93;

DTN SHREVEPORT SUNNY     93  67  42 SW9       30.03S HX  96
6HR MIN TEMP:  74; 6HR MAX TEMP:  93;


$$

LAZ014-016-201900-
NORTHEAST LOUISIANA

CITY           SKY/WX    TMP DP  RH WIND       PRES   REMARKS
MONROE         MOSUNNY   89  72  56 CALM      30.06F HX  96
6HR MIN TEMP:  72; 6HR MAX TEMP:  89;

TALLULAH       PTSUNNY   90  71  53 CALM      30.07F HX  96
6HR MIN TEMP:  72; 6HR MAX TEMP:  90;


$$



USA.gov is the U.S. government's official web portal to all federal, state and local government web resources and services.